Year,Month,Day,Hour,Minute,Value (Times are PST for temperature in C)
2008,12,16,00,00,-9.50
2008,12,16,00,01,-9.50
2008,12,16,00,02,-9.60
2008,12,16,00,03,-9.60
2008,12,16,00,04,-9.60
2008,12,16,00,05,-9.60
2008,12,16,00,06,-9.70
2008,12,16,00,07,-9.70
2008,12,16,00,08,-9.70
2008,12,16,00,09,-9.70
2008,12,16,00,10,-9.70
2008,12,16,00,11,-9.70
2008,12,16,00,12,-9.70
2008,12,16,00,13,-9.70
2008,12,16,00,14,-9.70
2008,12,16,00,15,-9.70
2008,12,16,00,16,-9.60
2008,12,16,00,17,-9.60
2008,12,16,00,18,-9.60
2008,12,16,00,19,-9.60
2008,12,16,00,20,-9.70
2008,12,16,00,21,-9.70
2008,12,16,00,22,-9.70
2008,12,16,00,23,-9.70
2008,12,16,00,24,-9.70
2008,12,16,00,25,-9.60
2008,12,16,00,26,-9.60
2008,12,16,00,27,-9.60
2008,12,16,00,28,-9.60
2008,12,16,00,29,-9.60
2008,12,16,00,30,-9.60
2008,12,16,00,31,-9.60
2008,12,16,00,32,-9.60
2008,12,16,00,33,-9.70
2008,12,16,00,34,-9.70
2008,12,16,00,35,-9.70
2008,12,16,00,36,-9.70
2008,12,16,00,37,-9.60
2008,12,16,00,38,-9.60
2008,12,16,00,39,-9.60
2008,12,16,00,40,-9.60
2008,12,16,00,41,-9.50
2008,12,16,00,42,-9.50
2008,12,16,00,43,-9.50
2008,12,16,00,44,-9.40
2008,12,16,00,45,-9.40
2008,12,16,00,46,-9.40
2008,12,16,00,47,-9.30
2008,12,16,00,48,-9.30
2008,12,16,00,49,-9.30
2008,12,16,00,50,-9.30
2008,12,16,00,51,-9.30
2008,12,16,00,52,-9.30
2008,12,16,00,53,-9.30
2008,12,16,00,54,-9.30
2008,12,16,00,55,-9.30
2008,12,16,00,56,-9.30
2008,12,16,00,57,-9.40
2008,12,16,00,58,-9.40
2008,12,16,00,59,-9.40
2008,12,16,01,00,-9.40
2008,12,16,01,01,-9.50
2008,12,16,01,02,-9.50
2008,12,16,01,03,-9.60
2008,12,16,01,04,-9.60
2008,12,16,01,05,-9.70
2008,12,16,01,06,-9.70
2008,12,16,01,07,-9.70
2008,12,16,01,08,-9.70
2008,12,16,01,09,-9.70
2008,12,16,01,10,-9.80
2008,12,16,01,11,-9.80
2008,12,16,01,12,-9.80
2008,12,16,01,13,-9.80
2008,12,16,01,14,-9.90
2008,12,16,01,15,-9.90
2008,12,16,01,16,-9.90
2008,12,16,01,17,-9.90
2008,12,16,01,18,-10.00
2008,12,16,01,19,-10.00
2008,12,16,01,20,-10.00
2008,12,16,01,21,-10.10
2008,12,16,01,22,-10.10
2008,12,16,01,23,-10.10
2008,12,16,01,24,-10.10
2008,12,16,01,25,-10.10
2008,12,16,01,26,-10.10
2008,12,16,01,27,-10.10
2008,12,16,01,28,-10.10
2008,12,16,01,29,-10.10
2008,12,16,01,30,-10.10
2008,12,16,01,31,-10.10
2008,12,16,01,32,-10.10
2008,12,16,01,33,-10.20
2008,12,16,01,34,-10.10
2008,12,16,01,35,-10.10
2008,12,16,01,36,-10.10
2008,12,16,01,37,-10.20
2008,12,16,01,38,-10.20
2008,12,16,01,39,-10.20
2008,12,16,01,40,-10.20
2008,12,16,01,41,-10.20
2008,12,16,01,42,-10.20
2008,12,16,01,43,-10.30
2008,12,16,01,44,-10.30
2008,12,16,01,45,-10.30
2008,12,16,01,46,-10.30
2008,12,16,01,47,-10.30
2008,12,16,01,48,-10.30
2008,12,16,01,49,-10.30
2008,12,16,01,50,-10.30
2008,12,16,01,51,-10.30
2008,12,16,01,52,-10.30
2008,12,16,01,53,-10.30
2008,12,16,01,54,-10.30
2008,12,16,01,55,-10.30
2008,12,16,01,56,-10.30
2008,12,16,01,57,-10.30
2008,12,16,01,58,-10.30
2008,12,16,01,59,-10.30
2008,12,16,02,00,-10.30
2008,12,16,02,01,-10.30
2008,12,16,02,02,-10.30
2008,12,16,02,03,-10.30
2008,12,16,02,04,-10.30
2008,12,16,02,05,-10.30
2008,12,16,02,06,-10.30
2008,12,16,02,07,-10.30
2008,12,16,02,08,-10.30
2008,12,16,02,09,-10.30
2008,12,16,02,10,-10.30
2008,12,16,02,11,-10.30
2008,12,16,02,12,-10.20
2008,12,16,02,13,-10.20
2008,12,16,02,14,-10.20
2008,12,16,02,15,-10.20
2008,12,16,02,16,-10.20
2008,12,16,02,17,-10.20
2008,12,16,02,18,-10.20
2008,12,16,02,19,-10.20
2008,12,16,02,20,-10.20
2008,12,16,02,21,-10.20
2008,12,16,02,22,-10.20
2008,12,16,02,23,-10.20
2008,12,16,02,24,-10.20
2008,12,16,02,25,-10.20
2008,12,16,02,26,-10.20
2008,12,16,02,27,-10.20
2008,12,16,02,28,-10.20
2008,12,16,02,29,-10.20
2008,12,16,02,30,-10.20
2008,12,16,02,31,-10.30
2008,12,16,02,32,-10.30
2008,12,16,02,33,-10.30
2008,12,16,02,34,-10.30
2008,12,16,02,35,-10.30
2008,12,16,02,36,-10.30
2008,12,16,02,37,-10.30
2008,12,16,02,38,-10.30
2008,12,16,02,39,-10.30
2008,12,16,02,40,-10.30
2008,12,16,02,41,-10.30
2008,12,16,02,42,-10.20
2008,12,16,02,43,-10.20
2008,12,16,02,44,-10.20
2008,12,16,02,45,-10.20
2008,12,16,02,46,-10.20
2008,12,16,02,47,-10.20
2008,12,16,02,48,-10.20
2008,12,16,02,49,-10.20
2008,12,16,02,50,-10.20
2008,12,16,02,51,-10.20
2008,12,16,02,52,-10.20
2008,12,16,02,53,-10.20
2008,12,16,02,54,-10.20
2008,12,16,02,55,-10.20
2008,12,16,02,56,-10.30
2008,12,16,02,57,-10.30
2008,12,16,02,58,-10.30
2008,12,16,02,59,-10.30
2008,12,16,03,00,-10.30
2008,12,16,03,01,-10.30
2008,12,16,03,02,-10.30
2008,12,16,03,03,-10.30
2008,12,16,03,04,-10.30
2008,12,16,03,05,-10.30
2008,12,16,03,06,-10.30
2008,12,16,03,07,-10.30
2008,12,16,03,08,-10.30
2008,12,16,03,09,-10.30
2008,12,16,03,10,-10.30
2008,12,16,03,11,-10.30
2008,12,16,03,12,-10.30
2008,12,16,03,13,-10.40
2008,12,16,03,14,-10.40
2008,12,16,03,15,-10.40
2008,12,16,03,16,-10.40
2008,12,16,03,17,-10.40
2008,12,16,03,18,-10.40
2008,12,16,03,19,-10.40
2008,12,16,03,20,-10.50
2008,12,16,03,21,-10.50
2008,12,16,03,22,-10.50
2008,12,16,03,23,-10.50
2008,12,16,03,24,-10.50
2008,12,16,03,25,-10.50
2008,12,16,03,26,-10.50
2008,12,16,03,27,-10.60
2008,12,16,03,28,-10.60
2008,12,16,03,29,-10.60
2008,12,16,03,30,-10.60
2008,12,16,03,31,-10.60
2008,12,16,03,32,-10.60
2008,12,16,03,33,-10.60
2008,12,16,03,34,-10.60
2008,12,16,03,35,-10.60
2008,12,16,03,36,-10.60
2008,12,16,03,37,-10.60
2008,12,16,03,38,-10.60
2008,12,16,03,39,-10.70
2008,12,16,03,40,-10.70
2008,12,16,03,41,-10.70
2008,12,16,03,42,-10.70
2008,12,16,03,43,-10.60
2008,12,16,03,44,-10.60
2008,12,16,03,45,-10.60
2008,12,16,03,46,-10.60
2008,12,16,03,47,-10.60
2008,12,16,03,48,-10.60
2008,12,16,03,49,-10.60
2008,12,16,03,50,-10.60
2008,12,16,03,51,-10.60
2008,12,16,03,52,-10.60
2008,12,16,03,53,-10.60
2008,12,16,03,54,-10.60
2008,12,16,03,55,-10.60
2008,12,16,03,56,-10.60
2008,12,16,03,57,-10.60
2008,12,16,03,58,-10.60
2008,12,16,03,59,-10.60
2008,12,16,04,00,-10.70
2008,12,16,04,01,-10.70
2008,12,16,04,02,-10.70
2008,12,16,04,03,-10.70
2008,12,16,04,05,-10.70
2008,12,16,04,06,-10.70
2008,12,16,04,07,-10.70
2008,12,16,04,08,-10.70
2008,12,16,04,09,-10.70
2008,12,16,04,10,-10.70
2008,12,16,04,11,-10.70
2008,12,16,04,12,-10.70
2008,12,16,04,13,-10.70
2008,12,16,04,14,-10.70
2008,12,16,04,15,-10.70
2008,12,16,04,16,-10.70
2008,12,16,04,17,-10.70
2008,12,16,04,18,-10.70
2008,12,16,04,19,-10.70
2008,12,16,04,20,-10.70
2008,12,16,04,21,-10.70
2008,12,16,04,22,-10.60
2008,12,16,04,23,-10.60
2008,12,16,04,24,-10.60
2008,12,16,04,25,-10.60
2008,12,16,04,26,-10.60
2008,12,16,04,27,-10.60
2008,12,16,04,28,-10.60
2008,12,16,04,29,-10.60
2008,12,16,04,30,-10.60
2008,12,16,04,31,-10.70
2008,12,16,04,32,-10.70
2008,12,16,04,33,-10.70
2008,12,16,04,34,-10.70
2008,12,16,04,35,-10.70
2008,12,16,04,36,-10.70
2008,12,16,04,37,-10.80
2008,12,16,04,38,-10.80
2008,12,16,04,39,-10.80
2008,12,16,04,40,-10.80
2008,12,16,04,41,-10.80
2008,12,16,04,42,-10.80
2008,12,16,04,43,-10.80
2008,12,16,04,44,-10.80
2008,12,16,04,45,-10.80
2008,12,16,04,46,-10.80
2008,12,16,04,47,-10.80
2008,12,16,04,48,-10.80
2008,12,16,04,49,-10.70
2008,12,16,04,50,-10.70
2008,12,16,04,51,-10.70
2008,12,16,04,52,-10.70
2008,12,16,04,53,-10.70
2008,12,16,04,54,-10.80
2008,12,16,04,55,-10.80
2008,12,16,04,56,-10.80
2008,12,16,04,57,-10.80
2008,12,16,04,58,-10.80
2008,12,16,04,59,-10.80
2008,12,16,05,00,-10.80
2008,12,16,05,01,-10.80
2008,12,16,05,02,-10.80
2008,12,16,05,03,-10.80
2008,12,16,05,04,-10.80
2008,12,16,05,05,-10.80
2008,12,16,05,06,-10.80
2008,12,16,05,07,-10.80
2008,12,16,05,08,-10.80
2008,12,16,05,09,-10.80
2008,12,16,05,10,-10.70
2008,12,16,05,11,-10.70
2008,12,16,05,12,-10.80
2008,12,16,05,13,-10.80
2008,12,16,05,14,-10.80
2008,12,16,05,15,-10.80
2008,12,16,05,16,-10.80
2008,12,16,05,17,-10.80
2008,12,16,05,18,-10.80
2008,12,16,05,19,-10.80
2008,12,16,05,20,-10.80
2008,12,16,05,21,-10.80
2008,12,16,05,22,-10.80
2008,12,16,05,23,-10.80
2008,12,16,05,24,-10.80
2008,12,16,05,25,-10.80
2008,12,16,05,26,-10.80
2008,12,16,05,27,-10.80
2008,12,16,05,28,-10.80
2008,12,16,05,29,-10.80
2008,12,16,05,30,-10.80
2008,12,16,05,31,-10.90
2008,12,16,05,32,-10.90
2008,12,16,05,33,-10.90
2008,12,16,05,34,-10.90
2008,12,16,05,35,-10.90
2008,12,16,05,36,-10.90
2008,12,16,05,37,-11.00
2008,12,16,05,38,-11.00
2008,12,16,05,39,-11.00
2008,12,16,05,40,-11.00
2008,12,16,05,41,-11.00
2008,12,16,05,42,-11.00
2008,12,16,05,43,-11.00
2008,12,16,05,44,-10.90
2008,12,16,05,45,-10.90
2008,12,16,05,46,-10.90
2008,12,16,05,47,-10.90
2008,12,16,05,48,-10.90
2008,12,16,05,49,-10.90
2008,12,16,05,50,-10.90
2008,12,16,05,51,-10.90
2008,12,16,05,52,-10.90
2008,12,16,05,53,-10.90
2008,12,16,05,54,-11.00
2008,12,16,05,55,-11.00
2008,12,16,05,56,-11.00
2008,12,16,05,57,-11.10
2008,12,16,05,58,-11.10
2008,12,16,05,59,-11.00
2008,12,16,06,00,-11.00
2008,12,16,06,01,-11.00
2008,12,16,06,02,-11.00
2008,12,16,06,03,-11.00
2008,12,16,06,04,-10.90
2008,12,16,06,05,-10.90
2008,12,16,06,06,-10.90
2008,12,16,06,07,-10.80
2008,12,16,06,08,-10.80
2008,12,16,06,09,-10.80
2008,12,16,06,10,-10.80
2008,12,16,06,11,-10.80
2008,12,16,06,12,-10.80
2008,12,16,06,13,-10.80
2008,12,16,06,14,-10.80
2008,12,16,06,15,-10.80
2008,12,16,06,16,-10.90
2008,12,16,06,17,-10.90
2008,12,16,06,18,-10.90
2008,12,16,06,19,-10.90
2008,12,16,06,20,-10.90
2008,12,16,06,21,-10.90
2008,12,16,06,22,-10.90
2008,12,16,06,23,-11.00
2008,12,16,06,24,-11.00
2008,12,16,06,25,-11.00
2008,12,16,06,26,-11.10
2008,12,16,06,27,-11.10
2008,12,16,06,28,-11.10
2008,12,16,06,29,-11.10
2008,12,16,06,30,-11.10
2008,12,16,06,31,-11.10
2008,12,16,06,32,-11.10
2008,12,16,06,33,-11.10
2008,12,16,06,34,-11.10
2008,12,16,06,35,-11.10
2008,12,16,06,36,-11.10
2008,12,16,06,37,-11.10
2008,12,16,06,38,-11.10
2008,12,16,06,39,-11.10
2008,12,16,06,40,-11.10
2008,12,16,06,41,-11.00
2008,12,16,06,42,-11.00
2008,12,16,06,43,-11.00
2008,12,16,06,44,-11.00
2008,12,16,06,45,-11.00
2008,12,16,06,46,-11.00
2008,12,16,06,47,-11.00
2008,12,16,06,48,-11.00
2008,12,16,06,49,-11.00
2008,12,16,06,50,-11.00
2008,12,16,06,51,-11.00
2008,12,16,06,52,-11.00
2008,12,16,06,53,-11.00
2008,12,16,06,54,-10.90
2008,12,16,06,55,-10.90
2008,12,16,06,56,-10.90
2008,12,16,06,57,-10.90
2008,12,16,06,58,-10.90
2008,12,16,06,59,-10.90
2008,12,16,07,00,-10.90
2008,12,16,07,01,-10.90
2008,12,16,07,02,-11.00
2008,12,16,07,03,-11.00
2008,12,16,07,04,-11.10
2008,12,16,07,05,-11.10
2008,12,16,07,06,-11.10
2008,12,16,07,07,-11.10
2008,12,16,07,08,-11.10
2008,12,16,07,09,-11.10
2008,12,16,07,10,-11.10
2008,12,16,07,11,-11.20
2008,12,16,07,12,-11.20
2008,12,16,07,13,-11.20
2008,12,16,07,14,-11.20
2008,12,16,07,15,-11.20
2008,12,16,07,16,-11.10
2008,12,16,07,17,-11.10
2008,12,16,07,18,-11.10
2008,12,16,07,19,-11.10
2008,12,16,07,20,-11.00
2008,12,16,07,21,-11.00
2008,12,16,07,22,-11.00
2008,12,16,07,23,-11.00
2008,12,16,07,24,-11.00
2008,12,16,07,25,-11.00
2008,12,16,07,26,-11.00
2008,12,16,07,27,-11.00
2008,12,16,07,28,-11.00
2008,12,16,07,29,-11.00
2008,12,16,07,30,-11.00
2008,12,16,07,31,-11.00
2008,12,16,07,32,-11.00
2008,12,16,07,33,-11.00
2008,12,16,07,34,-10.90
2008,12,16,07,35,-10.90
2008,12,16,07,36,-10.90
2008,12,16,07,37,-10.90
2008,12,16,07,38,-11.00
2008,12,16,07,39,-11.00
2008,12,16,07,40,-11.00
2008,12,16,07,41,-11.00
2008,12,16,07,42,-11.10
2008,12,16,07,43,-11.10
2008,12,16,07,44,-11.10
2008,12,16,07,45,-11.00
2008,12,16,07,46,-11.00
2008,12,16,07,47,-10.90
2008,12,16,07,48,-10.90
2008,12,16,07,49,-10.90
2008,12,16,07,50,-10.90
2008,12,16,07,51,-10.90
2008,12,16,07,52,-10.90
2008,12,16,07,53,-10.90
2008,12,16,07,54,-10.90
2008,12,16,07,55,-10.90
2008,12,16,07,56,-10.90
2008,12,16,07,57,-10.90
2008,12,16,07,58,-10.90
2008,12,16,07,59,-10.90
2008,12,16,08,00,-10.90
2008,12,16,08,01,-10.80
2008,12,16,08,02,-10.80
2008,12,16,08,03,-10.80
2008,12,16,08,04,-10.80
2008,12,16,08,05,-10.80
2008,12,16,08,06,-10.80
2008,12,16,08,07,-10.90
2008,12,16,08,08,-10.90
2008,12,16,08,09,-10.90
2008,12,16,08,10,-10.90
2008,12,16,08,11,-10.80
2008,12,16,08,12,-10.90
2008,12,16,08,13,-10.80
2008,12,16,08,14,-10.80
2008,12,16,08,15,-10.80
2008,12,16,08,16,-10.80
2008,12,16,08,17,-10.80
2008,12,16,08,18,-10.80
2008,12,16,08,19,-10.80
2008,12,16,08,20,-10.80
2008,12,16,08,21,-10.70
2008,12,16,08,22,-10.70
2008,12,16,08,23,-10.70
2008,12,16,08,24,-10.60
2008,12,16,08,25,-10.60
2008,12,16,08,26,-10.60
2008,12,16,08,27,-10.60
2008,12,16,08,28,-10.60
2008,12,16,08,29,-10.50
2008,12,16,08,30,-10.50
2008,12,16,08,31,-10.50
2008,12,16,08,32,-10.50
2008,12,16,08,33,-10.50
2008,12,16,08,34,-10.50
2008,12,16,08,35,-10.50
2008,12,16,08,36,-10.50
2008,12,16,08,37,-10.50
2008,12,16,08,38,-10.40
2008,12,16,08,39,-10.40
2008,12,16,08,40,-10.40
2008,12,16,08,41,-10.40
2008,12,16,08,42,-10.40
2008,12,16,08,43,-10.40
2008,12,16,08,44,-10.30
2008,12,16,08,45,-10.30
2008,12,16,08,46,-10.20
2008,12,16,08,47,-10.20
2008,12,16,08,48,-10.20
2008,12,16,08,49,-10.10
2008,12,16,08,50,-10.10
2008,12,16,08,51,-10.00
2008,12,16,08,52,-9.90
2008,12,16,08,53,-9.80
2008,12,16,08,54,-9.70
2008,12,16,08,55,-9.60
2008,12,16,08,56,-9.50
2008,12,16,08,57,-9.30
2008,12,16,08,58,-9.20
2008,12,16,08,59,-9.20
2008,12,16,09,00,-9.10
2008,12,16,09,01,-9.00
2008,12,16,09,02,-8.90
2008,12,16,09,03,-8.90
2008,12,16,09,04,-8.90
2008,12,16,09,05,-8.90
2008,12,16,09,06,-8.90
2008,12,16,09,07,-8.90
2008,12,16,09,08,-8.90
2008,12,16,09,09,-8.90
2008,12,16,09,10,-8.90
2008,12,16,09,11,-8.90
2008,12,16,09,12,-8.90
2008,12,16,09,13,-8.90
2008,12,16,09,14,-8.90
2008,12,16,09,15,-8.80
2008,12,16,09,16,-8.80
2008,12,16,09,17,-8.70
2008,12,16,09,18,-8.70
2008,12,16,09,19,-8.60
2008,12,16,09,20,-8.50
2008,12,16,09,21,-8.50
2008,12,16,09,22,-8.40
2008,12,16,09,23,-8.30
2008,12,16,09,24,-8.20
2008,12,16,09,25,-8.20
2008,12,16,09,26,-8.10
2008,12,16,09,27,-8.10
2008,12,16,09,28,-8.00
2008,12,16,09,29,-7.90
2008,12,16,09,30,-7.90
2008,12,16,09,31,-7.90
2008,12,16,09,32,-7.80
2008,12,16,09,33,-7.80
2008,12,16,09,34,-7.80
2008,12,16,09,35,-7.80
2008,12,16,09,36,-7.70
2008,12,16,09,37,-7.70
2008,12,16,09,38,-7.70
2008,12,16,09,39,-7.70
2008,12,16,09,40,-7.60
2008,12,16,09,41,-7.60
2008,12,16,09,42,-7.60
2008,12,16,09,43,-7.50
2008,12,16,09,44,-7.50
2008,12,16,09,45,-7.40
2008,12,16,09,46,-7.30
2008,12,16,09,47,-7.30
2008,12,16,09,48,-7.20
2008,12,16,09,49,-7.00
2008,12,16,09,50,-6.90
2008,12,16,09,51,-6.80
2008,12,16,09,52,-6.80
2008,12,16,09,53,-6.70
2008,12,16,09,54,-6.60
2008,12,16,09,55,-6.50
2008,12,16,09,56,-6.40
2008,12,16,09,57,-6.30
2008,12,16,09,58,-6.30
2008,12,16,09,59,-6.20
2008,12,16,10,00,-6.20
2008,12,16,10,01,-6.10
2008,12,16,10,02,-6.10
2008,12,16,10,03,-6.00
2008,12,16,10,04,-5.90
2008,12,16,10,05,-5.90
2008,12,16,10,06,-5.80
2008,12,16,10,07,-5.80
2008,12,16,10,08,-5.80
2008,12,16,10,09,-5.70
2008,12,16,10,10,-5.70
2008,12,16,10,11,-5.70
2008,12,16,10,12,-5.60
2008,12,16,10,13,-5.60
2008,12,16,10,14,-5.50
2008,12,16,10,15,-5.50
2008,12,16,10,16,-5.40
2008,12,16,10,17,-5.40
2008,12,16,10,18,-5.30
2008,12,16,10,19,-5.30
2008,12,16,10,20,-5.20
2008,12,16,10,21,-5.10
2008,12,16,10,22,-5.10
2008,12,16,10,23,-5.10
2008,12,16,10,24,-5.10
2008,12,16,10,25,-5.10
2008,12,16,10,26,-5.10
2008,12,16,10,27,-5.00
2008,12,16,10,28,-5.00
2008,12,16,10,29,-5.00
2008,12,16,10,30,-4.90
2008,12,16,10,31,-4.90
2008,12,16,10,32,-4.90
2008,12,16,10,33,-4.90
2008,12,16,10,34,-4.80
2008,12,16,10,35,-4.70
2008,12,16,10,36,-4.70
2008,12,16,10,37,-4.70
2008,12,16,10,38,-4.70
2008,12,16,10,39,-4.70
2008,12,16,10,40,-4.60
2008,12,16,10,41,-4.60
2008,12,16,10,42,-4.50
2008,12,16,10,43,-4.40
2008,12,16,10,44,-4.40
2008,12,16,10,45,-4.40
2008,12,16,10,46,-4.30
2008,12,16,10,47,-4.30
2008,12,16,10,48,-4.20
2008,12,16,10,49,-4.20
2008,12,16,10,50,-4.20
2008,12,16,10,51,-4.20
2008,12,16,10,52,-4.10
2008,12,16,10,53,-4.10
2008,12,16,10,54,-4.00
2008,12,16,10,55,-4.00
2008,12,16,10,56,-3.90
2008,12,16,10,57,-3.80
2008,12,16,10,58,-3.70
2008,12,16,10,59,-3.60
2008,12,16,11,00,-3.50
2008,12,16,11,01,-3.50
2008,12,16,11,02,-3.40
2008,12,16,11,03,-3.40
2008,12,16,11,04,-3.30
2008,12,16,11,05,-3.20
2008,12,16,11,06,-3.20
2008,12,16,11,07,-3.10
2008,12,16,11,08,-3.00
2008,12,16,11,09,-3.00
2008,12,16,11,10,-2.90
2008,12,16,11,11,-2.80
2008,12,16,11,12,-2.80
2008,12,16,11,13,-2.70
2008,12,16,11,14,-2.70
2008,12,16,11,15,-2.60
2008,12,16,11,16,-2.70
2008,12,16,11,17,-2.70
2008,12,16,11,18,-2.70
2008,12,16,11,19,-2.80
2008,12,16,11,20,-2.80
2008,12,16,11,21,-2.90
2008,12,16,11,22,-2.90
2008,12,16,11,23,-3.00
2008,12,16,11,24,-3.00
2008,12,16,11,25,-3.00
2008,12,16,11,26,-3.00
2008,12,16,11,27,-3.00
2008,12,16,11,28,-3.10
2008,12,16,11,29,-3.10
2008,12,16,11,30,-3.10
2008,12,16,11,31,-3.10
2008,12,16,11,32,-3.10
2008,12,16,11,33,-3.10
2008,12,16,11,34,-3.10
2008,12,16,11,35,-3.10
2008,12,16,11,36,-3.10
2008,12,16,11,37,-3.10
2008,12,16,11,38,-3.00
2008,12,16,11,39,-3.00
2008,12,16,11,40,-2.90
2008,12,16,11,41,-2.90
2008,12,16,11,42,-2.80
2008,12,16,11,43,-2.80
2008,12,16,11,44,-2.80
2008,12,16,11,45,-2.70
2008,12,16,11,46,-2.70
2008,12,16,11,47,-2.60
2008,12,16,11,48,-2.60
2008,12,16,11,49,-2.50
2008,12,16,11,50,-2.50
2008,12,16,11,51,-2.40
2008,12,16,11,52,-2.30
2008,12,16,11,53,-2.20
2008,12,16,11,54,-2.00
2008,12,16,11,55,-2.00
2008,12,16,11,56,-1.90
2008,12,16,11,57,-1.80
2008,12,16,11,58,-1.80
2008,12,16,11,59,-1.80
2008,12,16,12,00,-1.70
2008,12,16,12,01,-1.70
2008,12,16,12,02,-1.60
2008,12,16,12,03,-1.60
2008,12,16,12,04,-1.50
2008,12,16,12,05,-1.40
2008,12,16,12,06,-1.30
2008,12,16,12,07,-1.20
2008,12,16,12,08,-1.20
2008,12,16,12,09,-1.20
2008,12,16,12,10,-1.10
2008,12,16,12,11,-1.10
2008,12,16,12,12,-1.10
2008,12,16,12,13,-1.10
2008,12,16,12,14,-1.10
2008,12,16,12,15,-1.10
2008,12,16,12,16,-1.00
2008,12,16,12,17,-1.00
2008,12,16,12,18,-0.90
2008,12,16,12,19,-0.90
2008,12,16,12,20,-0.90
2008,12,16,12,21,-0.90
2008,12,16,12,22,-0.80
2008,12,16,12,23,-0.80
2008,12,16,12,24,-0.80
2008,12,16,12,25,-0.80
2008,12,16,12,26,-0.80
2008,12,16,12,27,-0.70
2008,12,16,12,28,-0.70
2008,12,16,12,29,-0.70
2008,12,16,12,30,-0.60
2008,12,16,12,31,-0.60
2008,12,16,12,32,-0.60
2008,12,16,12,33,-0.60
2008,12,16,12,34,-0.60
2008,12,16,12,35,-0.60
2008,12,16,12,36,-0.60
2008,12,16,12,37,-0.60
2008,12,16,12,38,-0.60
2008,12,16,12,39,-0.60
2008,12,16,12,40,-0.70
2008,12,16,12,41,-0.70
2008,12,16,12,42,-0.70
2008,12,16,12,43,-0.70
2008,12,16,12,44,-0.70
2008,12,16,12,45,-0.70
2008,12,16,12,46,-0.60
2008,12,16,12,47,-0.60
2008,12,16,12,48,-0.60
2008,12,16,12,49,-0.60
2008,12,16,12,50,-0.50
2008,12,16,12,51,-0.50
2008,12,16,12,52,-0.50
2008,12,16,12,53,-0.50
2008,12,16,12,54,-0.50
2008,12,16,12,55,-0.50
2008,12,16,12,56,-0.50
2008,12,16,12,57,-0.40
2008,12,16,12,58,-0.30
2008,12,16,12,59,-0.30
2008,12,16,13,00,-0.20
2008,12,16,13,01,-0.20
2008,12,16,13,02,-0.20
2008,12,16,13,03,-0.10
2008,12,16,13,04,-0.10
2008,12,16,13,05,-0.10
2008,12,16,13,06,-0.10
2008,12,16,13,07,0.00
2008,12,16,13,08,0.00
2008,12,16,13,09,0.10
2008,12,16,13,10,0.10
2008,12,16,13,11,0.10
2008,12,16,13,12,0.10
2008,12,16,13,13,0.20
2008,12,16,13,14,0.30
2008,12,16,13,15,0.40
2008,12,16,13,16,0.50
2008,12,16,13,17,0.60
2008,12,16,13,18,0.70
2008,12,16,13,19,0.80
2008,12,16,13,20,0.90
2008,12,16,13,21,0.90
2008,12,16,13,22,0.90
2008,12,16,13,23,0.90
2008,12,16,13,24,0.90
2008,12,16,13,25,0.90
2008,12,16,13,26,0.90
2008,12,16,13,27,0.80
2008,12,16,13,28,0.80
2008,12,16,13,29,0.80
2008,12,16,13,30,0.70
2008,12,16,13,31,0.70
2008,12,16,13,32,0.70
2008,12,16,13,33,0.70
2008,12,16,13,34,0.70
2008,12,16,13,35,0.70
2008,12,16,13,36,0.60
2008,12,16,13,37,0.60
2008,12,16,13,38,0.60
2008,12,16,13,39,0.60
2008,12,16,13,40,0.60
2008,12,16,13,41,0.60
2008,12,16,13,42,0.60
2008,12,16,13,43,0.60
2008,12,16,13,44,0.70
2008,12,16,13,45,0.70
2008,12,16,13,46,0.60
2008,12,16,13,47,0.60
2008,12,16,13,48,0.60
2008,12,16,13,49,0.60
2008,12,16,13,50,0.60
2008,12,16,13,51,0.70
2008,12,16,13,52,0.70
2008,12,16,13,53,0.80
2008,12,16,13,54,0.90
2008,12,16,13,55,1.00
2008,12,16,13,56,1.00
2008,12,16,13,57,1.10
2008,12,16,13,58,1.20
2008,12,16,13,59,1.30
2008,12,16,14,00,1.30
2008,12,16,14,01,1.30
2008,12,16,14,02,1.20
2008,12,16,14,03,1.10
2008,12,16,14,04,1.00
2008,12,16,14,05,0.90
2008,12,16,14,06,0.90
2008,12,16,14,07,0.80
2008,12,16,14,08,0.80
2008,12,16,14,09,0.70
2008,12,16,14,10,0.70
2008,12,16,14,11,0.70
2008,12,16,14,12,0.60
2008,12,16,14,13,0.60
2008,12,16,14,14,0.60
2008,12,16,14,15,0.60
2008,12,16,14,16,0.60
2008,12,16,14,17,0.60
2008,12,16,14,18,0.60
2008,12,16,14,19,0.60
2008,12,16,14,20,0.60
2008,12,16,14,21,0.70
2008,12,16,14,22,0.70
2008,12,16,14,23,0.70
2008,12,16,14,24,0.70
2008,12,16,14,25,0.80
2008,12,16,14,26,0.80
2008,12,16,14,27,0.90
2008,12,16,14,28,1.00
2008,12,16,14,29,1.00
2008,12,16,14,30,1.00
2008,12,16,14,31,1.00
2008,12,16,14,32,1.00
2008,12,16,14,33,0.90
2008,12,16,14,34,0.90
2008,12,16,14,35,0.90
2008,12,16,14,36,1.00
2008,12,16,14,37,1.00
2008,12,16,14,38,1.00
2008,12,16,14,39,1.00
2008,12,16,14,40,1.00
2008,12,16,14,41,1.10
2008,12,16,14,42,1.10
2008,12,16,14,43,1.10
2008,12,16,14,44,1.10
2008,12,16,14,45,1.10
2008,12,16,14,46,1.20
2008,12,16,14,47,1.20
2008,12,16,14,48,1.30
2008,12,16,14,49,1.30
2008,12,16,14,50,1.20
2008,12,16,14,51,1.20
2008,12,16,14,52,1.20
2008,12,16,14,53,1.20
2008,12,16,14,54,1.20
2008,12,16,14,55,1.10
2008,12,16,14,56,1.10
2008,12,16,14,57,1.10
2008,12,16,14,58,1.10
2008,12,16,14,59,1.10
2008,12,16,15,00,1.20
2008,12,16,15,01,1.20
2008,12,16,15,02,1.20
2008,12,16,15,03,1.30
2008,12,16,15,04,1.30
2008,12,16,15,05,1.30
2008,12,16,15,06,1.30
2008,12,16,15,07,1.30
2008,12,16,15,08,1.30
2008,12,16,15,09,1.30
2008,12,16,15,10,1.30
2008,12,16,15,11,1.30
2008,12,16,15,12,1.30
2008,12,16,15,13,1.30
2008,12,16,15,14,1.30
2008,12,16,15,15,1.30
2008,12,16,15,16,1.30
2008,12,16,15,17,1.30
2008,12,16,15,18,1.40
2008,12,16,15,19,1.40
2008,12,16,15,20,1.40
2008,12,16,15,21,1.30
2008,12,16,15,22,1.30
2008,12,16,15,23,1.30
2008,12,16,15,24,1.30
2008,12,16,15,25,1.30
2008,12,16,15,26,1.30
2008,12,16,15,27,1.30
2008,12,16,15,28,1.20
2008,12,16,15,29,1.20
2008,12,16,15,30,1.10
2008,12,16,15,31,1.10
2008,12,16,15,32,1.10
2008,12,16,15,33,1.10
2008,12,16,15,34,1.10
2008,12,16,15,35,1.10
2008,12,16,15,36,1.20
2008,12,16,15,37,1.20
2008,12,16,15,38,1.20
2008,12,16,15,39,1.20
2008,12,16,15,40,1.20
2008,12,16,15,41,1.20
2008,12,16,15,42,1.20
2008,12,16,15,43,1.20
2008,12,16,15,44,1.10
2008,12,16,15,45,1.10
2008,12,16,15,46,1.10
2008,12,16,15,47,1.10
2008,12,16,15,48,1.10
2008,12,16,15,49,1.00
2008,12,16,15,50,1.00
2008,12,16,15,51,1.00
2008,12,16,15,52,0.90
2008,12,16,15,53,0.90
2008,12,16,15,54,0.80
2008,12,16,15,55,0.80
2008,12,16,15,56,0.70
2008,12,16,15,57,0.70
2008,12,16,15,58,0.60
2008,12,16,15,59,0.50
2008,12,16,16,00,0.40
2008,12,16,16,01,0.30
2008,12,16,16,02,0.20
2008,12,16,16,03,0.20
2008,12,16,16,04,0.10
2008,12,16,16,05,0.10
2008,12,16,16,06,0.10
2008,12,16,16,07,0.00
2008,12,16,16,08,-0.10
2008,12,16,16,09,-0.10
2008,12,16,16,10,-0.10
2008,12,16,16,11,-0.20
2008,12,16,16,12,-0.20
2008,12,16,16,13,-0.20
2008,12,16,16,14,-0.30
2008,12,16,16,15,-0.30
2008,12,16,16,16,-0.30
2008,12,16,16,17,-0.30
2008,12,16,16,18,-0.40
2008,12,16,16,19,-0.40
2008,12,16,16,20,-0.40
2008,12,16,16,21,-0.40
2008,12,16,16,22,-0.50
2008,12,16,16,23,-0.50
2008,12,16,16,24,-0.60
2008,12,16,16,25,-0.60
2008,12,16,16,26,-0.60
2008,12,16,16,27,-0.60
2008,12,16,16,28,-0.60
2008,12,16,16,29,-0.60
2008,12,16,16,30,-0.70
2008,12,16,16,31,-0.70
2008,12,16,16,32,-0.70
2008,12,16,16,33,-0.70
2008,12,16,16,34,-0.70
2008,12,16,16,35,-0.70
2008,12,16,16,36,-0.70
2008,12,16,16,37,-0.70
2008,12,16,16,38,-0.80
2008,12,16,16,39,-0.80
2008,12,16,16,40,-0.80
2008,12,16,16,41,-0.80
2008,12,16,16,42,-0.80
2008,12,16,16,43,-0.80
2008,12,16,16,44,-0.80
2008,12,16,16,45,-0.80
2008,12,16,16,46,-0.80
2008,12,16,16,47,-0.80
2008,12,16,16,48,-0.90
2008,12,16,16,49,-0.90
2008,12,16,16,50,-0.90
2008,12,16,16,51,-0.90
2008,12,16,16,52,-0.90
2008,12,16,16,53,-0.90
2008,12,16,16,54,-0.90
2008,12,16,16,55,-0.90
2008,12,16,16,56,-0.90
2008,12,16,16,57,-0.90
2008,12,16,16,58,-0.90
2008,12,16,16,59,-0.90
2008,12,16,17,00,-0.90
2008,12,16,17,01,-0.90
2008,12,16,17,02,-0.90
2008,12,16,17,03,-0.90
2008,12,16,17,04,-0.90
2008,12,16,17,05,-0.90
2008,12,16,17,06,-0.90
2008,12,16,17,07,-0.90
2008,12,16,17,08,-0.90